date;active_apps_total_old;active_apps_total_new;downloads_total;entered_codes_total;sum_entered_codes_7_last_days;medical_hotline_count
25.06.2020;570000;.;766484;0;.;0
26.06.2020;750000;.;998436;0;.;0
27.06.2020;810000;.;1119608;0;.;0
28.06.2020;860000;.;1230073;0;.;0
29.06.2020;920000;.;1333003;0;.;0
30.06.2020;930000;.;1390660;0;.;0
01.07.2020;970000;.;1465911;5;5;0
02.07.2020;990000;.;1536788;11;16;0
03.07.2020;1010000;.;1596193;14;30;0
04.07.2020;1020000;.;1648663;11;41;2
05.07.2020;1000000;.;1688534;2;43;0
06.07.2020;1020000;.;1724354;14;57;1
07.07.2020;1020000;.;1755729;13;70;1
08.07.2020;1020000;.;1777486;11;76;11
09.07.2020;1010000;.;1798896;16;81;14
10.07.2020;990000;.;1824412;8;75;8
11.07.2020;960000;.;1839211;8;72;2
12.07.2020;950000;.;1849118;2;72;2
13.07.2020;970000;.;1893309;5;63;2
14.07.2020;970000;.;1903335;15;65;4
15.07.2020;950000;.;1912140;15;69;3
16.07.2020;970000;.;1936748;9;62;6
17.07.2020;990000;.;1982185;8;62;6
18.07.2020;950000;.;1995929;6;60;2
19.07.2020;940000;.;2005893;4;62;0
20.07.2020;950000;.;2016523;6;63;1
21.07.2020;950000;.;2028381;18;66;4
22.07.2020;920000;1150000;2040568;11;62;9
23.07.2020;900000;1160000;2052409;15;68;7
24.07.2020;910000;1200000;2063710;10;70;4
25.07.2020;900000;1190000;2072692;8;72;4
26.07.2020;910000;1200000;2080343;7;75;3
27.07.2020;910000;1200000;2096282;12;81;4
28.07.2020;910000;1200000;2103112;20;83;19
29.07.2020;910000;1200000;2110677;17;89;17
30.07.2020;920000;1220000;2138262;19;93;8
31.07.2020;920000;1220000;2145101;18;101;6
01.08.2020;910000;1190000;2150253;22;115;5
02.08.2020;910000;1210000;2154943;10;118;8
03.08.2020;920000;1220000;2159850;13;119;9
04.08.2020;920000;1210000;2164595;28;127;9
05.08.2020;910000;1210000;2171515;13;123;13
06.08.2020;910000;1210000;2176388;17;121;5
07.08.2020;910000;1230000;2181507;21;124;6
08.08.2020;910000;1210000;2185804;16;118;5
09.08.2020;920000;1250000;2189932;17;125;4
10.08.2020;940000;1260000;2194686;18;130;9
11.08.2020;950000;1240000;2198981;42;144;13
12.08.2020;970000;1260000;2203791;33;164;26
13.08.2020;990000;1270000;2208871;40;187;18
14.08.2020;1020000;1310000;2213926;45;211;6
15.08.2020;1030000;1280000;2218501;27;222;16
16.08.2020;1020000;1290000;2223114;10;215;16
17.08.2020;1070000;1380000;2228058;36;233;18
18.08.2020;1090000;1330000;2232358;34;225;39
19.08.2020;1100000;1360000;2237019;54;246;28
20.08.2020;1100000;1370000;2241822;29;235;22
21.08.2020;1110000;1360000;2246117;35;225;44
22.08.2020;1120000;1400000;2251276;17;215;9
23.08.2020;1130000;1450000;2254615;23;228;28
24.08.2020;1160000;1470000;2258312;41;233;24
25.08.2020;1180000;1470000;2262545;24;223;20
26.08.2020;1200000;1480000;2267550;31;200;18
27.08.2020;1220000;1520000;2271574;81;252;47
28.08.2020;1240000;1550000;2283727;64;281;59
29.08.2020;1260000;1580000;2294764;19;283;14
30.08.2020;1260000;1590000;2300717;14;274;31
31.08.2020;1270000;1590000;2308100;54;287;42
01.09.2020;1290000;1590000;2330702;45;308;53
02.09.2020;1300000;1590000;2335821;58;335;51
03.09.2020;1300000;1630000;2339929;70;324;58
04.09.2020;1300000;1620000;2343733;75;335;77
05.09.2020;1300000;1630000;2347375;58;374;60
06.09.2020;1300000;1680000;2350672;31;391;91
07.09.2020;1310000;1650000;2353962;73;410;56
08.09.2020;1310000;1630000;2358065;76;441;65
09.09.2020;1310000;1630000;2361267;52;435;64
10.09.2020;1300000;1620000;2364827;53;418;71
11.09.2020;1290000;1610000;2370328;81;424;79
12.09.2020;1260000;1600000;2373278;74;440;107
13.09.2020;1240000;1630000;2376366;52;461;87
14.09.2020;1240000;1620000;2379672;65;453;89
15.09.2020;1230000;1600000;2382885;57;434;67
16.09.2020;1220000;1590000;2386184;83;465;58
17.09.2020;1210000;1600000;2391050;80;492;122
18.09.2020;1210000;1610000;2394626;87;498;94
19.09.2020;1190000;1600000;2397877;57;481;75
20.09.2020;1190000;1630000;2400770;55;484;103
21.09.2020;1200000;1610000;2403631;56;475;99
22.09.2020;1200000;1620000;2406276;80;498;164
23.09.2020;1200000;1610000;2409185;84;499;155
24.09.2020;1200000;1610000;2412303;46;465;121
25.09.2020;1200000;1580000;2414840;66;444;62
26.09.2020;1190000;1600000;2417297;52;439;70
27.09.2020;1190000;1640000;2419697;33;417;53
28.09.2020;1190000;1630000;2421878;24;385;64
29.09.2020;1200000;1610000;2424683;59;364;86
30.09.2020;1190000;1590000;2426792;85;365;87
01.10.2020;1190000;1610000;2429037;116;435;116
02.10.2020;1200000;1600000;2431460;105;474;154
03.10.2020;1190000;1610000;2433865;88;510;117
04.10.2020;1010000;1580000;2435974;126;603;122
05.10.2020;1200000;1640000;2438666;101;680;195
06.10.2020;1210000;1620000;2441646;170;791;208
07.10.2020;1210000;1620000;2470867;191;897;255
08.10.2020;1200000;1620000;2475284;213;994;201
09.10.2020;1200000;1610000;2480689;215;1104;234
10.10.2020;1200000;1610000;2485384;207;1223;274
11.10.2020;1210000;1670000;2490524;247;1344;262
12.10.2020;1230000;1660000;2496854;189;1432;415
13.10.2020;1250000;1670000;2503401;275;1537;335
14.10.2020;1240000;1590000;2511033;337;1683;379
15.10.2020;1260000;1680000;2524847;336;1806;497
16.10.2020;1270000;1670000;2539625;511;2102;568
17.10.2020;1260000;1700000;2547801;461;2356;510
18.10.2020;1280000;1740000;2565144;435;2544;308
19.10.2020;1300000;1770000;2606493;484;2839;838
20.10.2020;1330000;1770000;2622915;529;3093;642
21.10.2020;1380000;1790000;2637257;623;3379;761
22.10.2020;1430000;1800000;2649147;591;3634;664
23.10.2020;1480000;1810000;2661750;870;3993;561
24.10.2020;1390000;1810000;2668588;762;4294;400
25.10.2020;1420000;1890000;2675089;916;4775;552
26.10.2020;1390000;1830000;2684178;1022;5313;771
27.10.2020;1390000;1820000;2692393;1114;5898;741
28.10.2020;1390000;1860000;2702818;1109;6384;713
29.10.2020;1400000;1840000;2710740;1109;6902;694
30.10.2020;1400000;1840000;2727364;1095;7127;700
31.10.2020;1390000;1810000;2732161;822;7187;569
01.11.2020;1390000;1840000;2736921;698;6969;483
02.11.2020;1410000;1880000;2740721;1136;7083;603
03.11.2020;1410000;1880000;2746785;1297;7266;622
04.11.2020;1430000;1840000;2751187;1476;7633;733
05.11.2020;1420000;1850000;2755330;1204;7728;639
06.11.2020;1430000;1840000;2758953;962;7595;565
07.11.2020;1400000;1850000;2762469;763;7536;396
08.11.2020;1390000;1870000;2765098;480;7318;326
09.11.2020;1400000;1870000;2768968;1121;7303;452
10.11.2020;1410000;1830000;2772099;953;6959;471
11.11.2020;1430000;1860000;2775264;1098;6581;459
12.11.2020;1400000;1860000;2778032;847;6224;440
13.11.2020;1400000;1840000;2781752;727;5989;354
14.11.2020;1390000;1840000;2784128;708;5934;270
15.11.2020;1380000;1870000;2786199;510;5964;229
16.11.2020;1390000;1860000;2788542;533;5376;353
17.11.2020;1400000;1840000;2792696;685;5108;258
18.11.2020;1390000;1810000;2794985;811;4821;318
19.11.2020;1400000;1840000;2797406;592;4566;368
20.11.2020;1390000;1820000;2800077;619;4458;297
21.11.2020;1380000;1830000;2802085;535;4285;246
22.11.2020;1380000;1840000;2803741;389;4164;225
23.11.2020;1400000;1840000;2805655;492;4123;230
24.11.2020;1400000;1840000;2806415;590;4028;259
25.11.2020;900000;1840000;2809651;631;3848;331
26.11.2020;1400000;1830000;2811512;557;3813;259
27.11.2020;1400000;1820000;2813671;499;3693;275
28.11.2020;1390000;1830000;2816134;422;3580;222
29.11.2020;1390000;1840000;2817882;320;3511;236
30.11.2020;1400000;1840000;2819788;432;3451;259
01.12.2020;1400000;1830000;2822148;550;3411;277
02.12.2020;1400000;1830000;2824735;595;3375;261
03.12.2020;1400000;1830000;2826941;542;3360;252
04.12.2020;1400000;1820000;2829254;601;3462;313
05.12.2020;1390000;1820000;2831525;487;3527;259
06.12.2020;1380000;1830000;2833268;376;3583;259
07.12.2020;1400000;1820000;2835325;649;3800;334
08.12.2020;1400000;1830000;2837522;662;3912;463
09.12.2020;1400000;1820000;2839724;675;3992;344
10.12.2020;1400000;1820000;2841767;767;4217;404
11.12.2020;1410000;1810000;2843893;705;4321;354
12.12.2020;1400000;1820000;2846030;582;4416;412
13.12.2020;1390000;1830000;2847761;497;4537;454
14.12.2020;1410000;1830000;2849689;628;4516;554
15.12.2020;1440000;1810000;2851762;657;4511;741
16.12.2020;1420000;1800000;2853792;781;4617;839
17.12.2020;1410000;1800000;2855844;680;4530;885
18.12.2020;1410000;1810000;2858041;603;4428;777
19.12.2020;1390000;1810000;2860127;561;4407;635
20.12.2020;1390000;1820000;2861858;481;4391;677
21.12.2020;1390000;1820000;2863665;551;4314;789
22.12.2020;1400000;1800000;2865494;634;4291;803
23.12.2020;1400000;1790000;2867150;644;4154;655
24.12.2020;1390000;1780000;2869443;509;3983;542
25.12.2020;1380000;1790000;2872228;425;3805;482
26.12.2020;1380000;1800000;2874008;459;3703;439
27.12.2020;1380000;1810000;2878119;401;3623;461
28.12.2020;1400000;1830000;2882457;460;3532;489
29.12.2020;1390000;1820000;2886248;661;3559;538
30.12.2020;1400000;1820000;2888821;649;3564;548
31.12.2020;1400000;1800000;2890638;445;3500;278
01.01.2021;1400000;1840000;2892100;380;3455;180
02.01.2021;1400000;1830000;2893721;384;3380;115
03.01.2021;1410000;1860000;2895289;417;3396;135
04.01.2021;1410000;1850000;2897030;451;3387;193
05.01.2021;1440000;1860000;2899009;512;3238;277
06.01.2021;1430000;1870000;2900985;517;3106;364
07.01.2021;1430000;1870000;2902609;406;3067;400
08.01.2021;1430000;1870000;2902190;331;3018;316
09.01.2021;1420000;1880000;2905896;348;2982;278
10.01.2021;1420000;1890000;2905058;206;2771;248
11.01.2021;1430000;1890000;2906478;261;2581;334
12.01.2021;1430000;1840000;2910260;376;2445;351
13.01.2021;1290000;1910000;2912112;284;2212;367
14.01.2021;1360000;2290000;2913750;268;2074;366
15.01.2021;1380000;2060000;2915113;260;2003;267
16.01.2021;1370000;1990000;2916452;199;1854;232
17.01.2021;1380000;1980000;2917615;173;1821;249
18.01.2021;1390000;1920000;2919104;226;1786;278
19.01.2021;1400000;1890000;2920681;250;1660;316
20.01.2021;1480000;.;2922125;293;1669;340
21.01.2021;1450000;.;2923543;248;1649;310
22.01.2021;1460000;.;2924749;277;1666;326
23.01.2021;1430000;.;2925935;186;1653;221
24.01.2021;1410000;.;2926839;125;1605;185
25.01.2021;1430000;.;2927930;167;1546;215
26.01.2021;1480000;.;2929563;207;1503;267
27.01.2021;1490000;.;2931135;231;1441;217
28.01.2021;1470000;.;2932792;209;1402;243
29.01.2021;1450000;.;2934465;182;1307;241
30.01.2021;1430000;1880000;2936070;189;1310;204
31.01.2021;1420000;1810000;2937102;141;1326;220
01.02.2021;1420000;1800000;2938477;129;1288;131
02.02.2021;1390000;1780000;2939926;182;1263;157
03.02.2021;1370000;1790000;2941300;184;1216;181
04.02.2021;1360000;1760000;2942614;155;1162;185
05.02.2021;1360000;1800000;2943917;124;1104;126
06.02.2021;1350000;1780000;2945215;141;1056;119
07.02.2021;1350000;1770000;2946209;101;1016;119
08.02.2021;1360000;1770000;2947261;134;1021;147
09.02.2021;1350000;1750000;2948437;165;1004;165
10.02.2021;1360000;1760000;2949699;165;985;176
11.02.2021;1360000;1770000;2950785;132;962;138
12.02.2021;1360000;1760000;2951922;116;954;135
13.02.2021;1350000;1760000;2952950;107;920;124
14.02.2021;1340000;1770000;2953696;71;890;112
15.02.2021;1350000;1770000;2954616;94;850;95
16.02.2021;1350000;1710000;2955816;112;797;116
17.02.2021;1350000;1740000;2956974;133;765;149
18.02.2021;1350000;1750000;2958086;119;752;140
19.02.2021;1350000;1740000;.;.;636;105
20.02.2021;1340000;1730000;2960034;109;638;90
21.02.2021;1340000;1690000;2960719;83;650;31
22.02.2021;1350000;1750000;2962261;100;656;118
23.02.2021;1350000;1730000;2963323;106;650;128
24.02.2021;1350000;1720000;2965027;139;656;134
25.02.2021;1350000;1720000;2966017;109;646;117
26.02.2021;1350000;1710000;2967020;116;762;162
27.02.2021;1340000;1720000;2967996;90;743;110
28.02.2021;1330000;1740000;2968751;75;735;99
01.03.2021;1340000;1740000;2969733;107;742;105
02.03.2021;1350000;1720000;2971035;157;793;135
03.03.2021;1350000;1720000;2972227;157;811;178
04.03.2021;1340000;1710000;2973983;142;844;146
05.03.2021;1340000;1700000;2975138;125;853;149
06.03.2021;1330000;1690000;2976199;92;855;115
07.03.2021;1330000;1700000;2976974;76;856;85
08.03.2021;1340000;1700000;2977934;109;858;113
09.03.2021;1340000;1700000;2979172;124;825;126
10.03.2021;1340000;1670000;2980132;126;794;113
11.03.2021;1350000;1680000;2981129;156;808;164
12.03.2021;1340000;1680000;2982712;116;799;105
13.03.2021;1340000;1700000;2983811;116;823;133
14.03.2021;1330000;1690000;2984631;114;861;138
15.03.2021;1340000;1710000;2985674;154;906;160
16.03.2021;1340000;1740000;2986921;162;944;162
17.03.2021;1340000;1750000;3037983;187;1005;191
18.03.2021;1340000;1760000;3039031;153;1002;145
19.03.2021;1340000;1750000;3040048;149;1035;150
20.03.2021;1390000;1770000;3041136;135;1054;129
21.03.2021;1330000;1890000;3041939;105;1045;130
22.03.2021;1320000;1830000;3043013;136;1027;122
23.03.2021;1320000;1820000;3045753;199;1064;233
24.03.2021;1350000;1820000;3047285;179;1056;209
25.03.2021;1360000;1800000;3048744;198;1101;284
26.03.2021;1320000;1810000;3050184;188;1140;351
27.03.2021;1310000;1820000;3051576;187;1192;357
28.03.2021;1250000;1820000;3052376;123;1210;173
29.03.2021;1310000;1820000;3053388;169;1243;211
30.03.2021;1300000;1790000;3054620;191;1235;228
31.03.2021;1300000;1810000;3055817;182;1238;257
01.04.2021;1310000;1790000;3057116;159;1199;212
02.04.2021;1290000;1800000;3058061;170;1181;195
03.04.2021;1290000;1800000;3059253;145;1139;148
04.04.2021;1280000;1800000;3060096;110;1126;117
05.04.2021;1280000;1820000;3060860;138;1095;163
06.04.2021;1300000;1820000;3061973;155;1059;167
07.04.2021;1300000;1810000;3063359;224;1101;199
08.04.2021;1300000;1810000;3065179;189;1131;222
09.04.2021;1300000;1800000;3066354;220;1181;174
10.04.2021;1290000;1780000;3067521;193;1229;185
11.04.2021;1280000;1800000;3068327;128;1247;131
12.04.2021;1290000;1830000;3069334;159;1268;158
13.04.2021;1290000;1800000;3070501;227;1340;217
14.04.2021;1290000;1800000;3071630;199;1315;163
15.04.2021;1290000;1800000;3072692;198;1324;211
16.04.2021;1290000;1780000;3073685;173;1277;155
17.04.2021;1280000;1790000;3074691;171;1255;190
18.04.2021;1280000;1800000;3075490;123;1250;183
19.04.2021;1290000;1800000;3076497;152;1243;150
20.04.2021;1290000;1780000;3077623;228;1244;274
21.04.2021;1290000;1790000;3078759;229;1274;205
22.04.2021;1280000;1790000;3079840;165;1241;174
23.04.2021;1280000;1780000;3080919;197;1265;201
24.04.2021;1270000;1780000;3081987;182;1276;187
25.04.2021;1270000;1800000;3082739;107;1260;146
26.04.2021;1280000;1790000;3083714;146;1254;168
27.04.2021;1290000;1780000;3084842;179;1205;215
28.04.2021;1280000;1780000;3085963;201;1177;209
29.04.2021;1280000;1780000;3092045;156;1168;150
30.04.2021;1280000;1780000;3093190;162;1133;138
01.05.2021;1270000;1760000;3094198;133;1084;125
02.05.2021;1270000;1800000;3095016;105;1082;115
03.05.2021;1280000;1790000;3095996;114;1050;112
04.05.2021;1290000;1800000;3097036;152;1023;149
05.05.2021;1280000;1770000;3098262;142;964;121
06.05.2021;1290000;1760000;3099276;144;952;162
07.05.2021;1290000;1780000;3100309;116;906;171
08.05.2021;1270000;1760000;3101252;113;886;110
09.05.2021;1290000;1790000;3101991;83;864;122
10.05.2021;1280000;1790000;3102933;96;846;132
11.05.2021;1290000;1790000;3103958;124;818;95
12.05.2021;1280000;1780000;3104936;93;769;119
13.05.2021;1270000;1760000;3105700;94;719;72
14.05.2021;1260000;1760000;3106674;78;681;80
15.05.2021;1260000;1760000;3107666;79;647;49
16.05.2021;1260000;1770000;3108369;59;623;43
17.05.2021;1270000;1780000;3109781;47;574;31
18.05.2021;1270000;1740000;3110743;81;531;57
19.05.2021;1270000;1750000;3111773;75;513;47
20.05.2021;1260000;1750000;3112716;85;504;62
21.05.2021;1260000;1750000;3113636;73;499;62
22.05.2021;1240000;1750000;3114548;61;481;44
23.05.2021;1240000;1750000;3115165;39;461;25
24.05.2021;1240000;1770000;3115810;40;454;24
25.05.2021;1260000;1760000;3116789;46;419;37
26.05.2021;1250000;1750000;3117880;55;399;29
27.05.2021;1250000;1740000;3118874;60;374;29
28.05.2021;1250000;1730000;3119814;42;343;48
29.05.2021;1230000;1720000;3120609;47;329;42
30.05.2021;1230000;1730000;3121259;26;316;50
31.05.2021;1240000;1740000;3122227;32;308;41
01.06.2021;1240000;1730000;3123319;44;306;40
02.06.2021;1250000;1730000;3124453;31;282;37
03.06.2021;1250000;1720000;3125378;32;254;21
04.06.2021;1240000;1730000;3127525;24;236;19
05.06.2021;1230000;1720000;3129131;20;209;11
06.06.2021;1230000;1740000;3130433;16;199;15
07.06.2021;1250000;1740000;3144809;18;185;14
08.06.2021;1250000;1720000;3149844;30;171;27
09.06.2021;1250000;1730000;3154800;25;165;24
10.06.2021;1250000;1720000;3157090;12;145;21
11.06.2021;1250000;1720000;3159709;27;148;24
12.06.2021;1230000;1700000;3161266;13;141;10
13.06.2021;1230000;1730000;3162592;9;134;8
14.06.2021;1240000;1740000;3164655;16;132;14
15.06.2021;1240000;1710000;3167722;8;110;11
16.06.2021;1240000;1710000;3170337;16;101;28
17.06.2021;1240000;1710000;3173689;13;102;14
18.06.2021;1240000;1700000;3176708;11;86;9
19.06.2021;1220000;1700000;3179290;3;76;13
20.06.2021;1220000;1730000;3181043;3;70;0
21.06.2021;1230000;1720000;3183543;9;63;3
22.06.2021;1230000;1690000;3186034;3;58;5
23.06.2021;1230000;1700000;3188932;3;45;4
24.06.2021;1230000;1690000;3192088;3;35;7
25.06.2021;1220000;1690000;3195163;7;31;3
26.06.2021;1210000;1680000;3197287;9;37;4
27.06.2021;1210000;1700000;3199195;4;38;1
28.06.2021;1220000;1700000;.;.;29;0
29.06.2021;1220000;1680000;3203613;6;32;0
30.06.2021;1220000;1690000;3206133;0;29;6
01.07.2021;1230000;1700000;3208625;7;33;5
02.07.2021;1230000;1700000;3211172;10;36;10
03.07.2021;1210000;1680000;3213775;5;32;6
04.07.2021;1210000;1710000;3216215;5;33;5
05.07.2021;1240000;1720000;3229025;15;48;5
06.07.2021;1260000;1710000;3231578;17;59;15
07.07.2021;1250000;1700000;3234094;20;79;27
08.07.2021;1270000;1680000;.;20;92;23
09.07.2021;1250000;1680000;3240197;17;99;9
10.07.2021;1210000;1670000;3242538;11;105;5
11.07.2021;1210000;1680000;3244278;5;105;3
12.07.2021;1220000;1690000;3246464;18;108;22
13.07.2021;1220000;1680000;.;0;91;13
14.07.2021;1210000;1670000;3251295;22;93;22
15.07.2021;1210000;1670000;3253718;31;104;32
16.07.2021;1210000;1660000;3256082;21;108;24
17.07.2021;1190000;1650000;3258302;20;117;18
18.07.2021;1190000;1680000;3260064;13;125;16
19.07.2021;1200000;1680000;3262195;24;131;26
20.07.2021;1200000;1660000;3264444;35;166;16
21.07.2021;1200000;1660000;3267744;33;177;18
22.07.2021;1200000;1660000;3270410;.;146;22
23.07.2021;1190000;1650000;3272939;.;125;19
24.07.2021;1180000;1650000;3275391;28;133;15
25.07.2021;1180000;1670000;3277345;17;137;15
26.07.2021;1190000;1670000;3279155;24;137;20
27.07.2021;1190000;1660000;3281053;47;149;29
28.07.2021;1190000;1650000;3283105;0;116;26
29.07.2021;1190000;1650000;3284946;25;141;28
30.07.2021;1190000;1650000;3287024;35;176;25
31.07.2021;1180000;1650000;3288946;31;179;27
01.08.2021;1180000;1660000;3290460;29;191;33
02.08.2021;1190000;1660000;3292200;29;196;41
03.08.2021;1180000;1640000;3293974;53;202;41
04.08.2021;1190000;1660000;3295689;47;249;36
05.08.2021;1190000;1640000;3298512;47;271;26
06.08.2021;1180000;1640000;3300260;47;283;33
07.08.2021;1180000;1630000;3301987;50;302;34
08.08.2021;1180000;1660000;3303301;35;308;26
09.08.2021;1190000;1660000;3305227;39;318;22
10.08.2021;1190000;1650000;3306779;56;321;26
11.08.2021;1190000;1650000;3308213;57;331;43
12.08.2021;1190000;1650000;3309777;62;346;28
13.08.2021;1190000;1640000;3311441;49;348;17
14.08.2021;1230000;1630000;3312932;48;346;32
15.08.2021;1180000;1650000;3314097;41;352;20
16.08.2021;1190000;1650000;3315658;47;360;34
17.08.2021;1190000;1650000;3327266;80;384;38
18.08.2021;1190000;1640000;3328916;65;392;37
19.08.2021;1190000;1640000;3330531;83;413;43
20.08.2021;1190000;1630000;3332180;50;414;25
21.08.2021;1180000;1620000;3333856;53;419;27
22.08.2021;1180000;1660000;3335266;47;425;30
23.08.2021;1190000;1660000;3336828;66;444;48
24.08.2021;1190000;1640000;3338704;92;456;51
25.08.2021;1190000;1640000;3340799;67;458;40
26.08.2021;1190000;1630000;3342869;60;435;34
27.08.2021;1190000;1630000;3345012;67;452;55
28.08.2021;1180000;1620000;3347102;56;455;64
29.08.2021;1180000;1650000;3348597;46;454;71
30.08.2021;1190000;1650000;3350380;53;441;60
31.08.2021;1190000;1640000;3352283;91;440;99
01.09.2021;1190000;1630000;3354114;85;458;69
02.09.2021;1190000;1630000;3355842;112;510;85
03.09.2021;1190000;1630000;3357824;124;567;118
04.09.2021;1170000;1610000;3359835;110;621;127
05.09.2021;1170000;1640000;3361433;68;643;91
06.09.2021;1180000;1640000;3363050;81;671;87
07.09.2021;1190000;1630000;3364915;106;686;87
08.09.2021;1190000;1630000;3368526;111;712;98
09.09.2021;1190000;1630000;3372639;108;708;112
10.09.2021;1190000;1620000;3376761;85;669;60
11.09.2021;1170000;1620000;3379945;68;627;73
12.09.2021;1180000;1650000;3383146;69;628;52
13.09.2021;1200000;1660000;3387760;70;617;49
14.09.2021;1210000;1660000;3391978;113;624;89
15.09.2021;1200000;1650000;3396142;73;586;104
16.09.2021;1210000;1640000;3399915;73;551;61
17.09.2021;1230000;1650000;3403850;79;545;66
18.09.2021;1200000;1640000;3407472;47;524;42
19.09.2021;1210000;1660000;3410490;39;494;30
20.09.2021;1220000;1660000;3413482;42;466;30
21.09.2021;1210000;1640000;3416278;66;419;34
22.09.2021;1200000;1650000;3419079;60;406;49
23.09.2021;1200000;1640000;3421997;53;386;33
24.09.2021;1200000;1630000;3425062;41;348;43
25.09.2021;1180000;1630000;3427954;36;337;61
26.09.2021;1180000;1650000;3430072;26;324;22
27.09.2021;1190000;1650000;3432260;34;316;30
28.09.2021;1190000;1640000;3434371;48;298;32
29.09.2021;1190000;1630000;3436830;54;292;34
30.09.2021;1190000;1640000;3439486;31;270;22
01.10.2021;1190000;1620000;3442363;42;271;39
02.10.2021;1170000;1620000;3444906;28;263;25
03.10.2021;1170000;1640000;3446930;32;269;25
04.10.2021;1180000;1640000;3449167;31;266;19
05.10.2021;1180000;1630000;3451349;44;262;40
06.10.2021;1180000;1630000;3453696;34;242;38
07.10.2021;1180000;1620000;3456104;27;238;15
08.10.2021;1180000;1620000;3458940;33;229;13
09.10.2021;1170000;1620000;3461454;14;215;24
10.10.2021;1160000;1630000;3463330;30;213;24
11.10.2021;1170000;1630000;3465216;31;213;10
12.10.2021;1180000;1620000;3467240;38;207;31
13.10.2021;1170000;1610000;3469415;38;211;37
14.10.2021;1170000;1610000;3471808;42;226;41
15.10.2021;1170000;1610000;3474616;39;232;59
16.10.2021;1160000;1600000;3477211;33;251;30
17.10.2021;1160000;1630000;3479213;40;261;40
18.10.2021;1180000;1640000;3481263;49;279;56
19.10.2021;1190000;1630000;3483271;64;305;64
20.10.2021;1200000;1630000;3485370;82;349;74
21.10.2021;1200000;1630000;3487828;65;372;105
22.10.2021;1190000;1600000;3490334;73;406;66
23.10.2021;1180000;1600000;3492558;53;426;52
24.10.2021;1180000;1630000;3494340;47;433;60
25.10.2021;1200000;1640000;3496274;83;467;65
26.10.2021;1190000;1620000;3498392;88;491;84
27.10.2021;1180000;1610000;3500551;62;471;50
28.10.2021;1180000;1610000;3502687;78;484;65
29.10.2021;1180000;1600000;3505017;84;495;79
30.10.2021;1160000;1600000;3507246;73;515;90
31.10.2021;1210000;1680000;3509014;57;525;112
01.11.2021;1170000;1620000;3510857;73;515;90
02.11.2021;1180000;1610000;3513524;122;549;115
03.11.2021;1180000;1610000;3515590;111;598;80
04.11.2021;1180000;1610000;3517638;136;656;143
05.11.2021;1170000;1590000;3519728;137;709;166
06.11.2021;1160000;1600000;3521979;89;725;118
07.11.2021;1160000;1620000;3523690;87;755;112
08.11.2021;1170000;1620000;3525503;127;809;175
09.11.2021;1100000;1600000;3527480;165;852;150
10.11.2021;1140000;1600000;3529494;192;933;251
11.11.2021;1170000;1600000;3531474;183;980;229
12.11.2021;1170000;1590000;3533762;156;999;219
13.11.2021;1160000;1590000;3535978;123;1033;182
14.11.2021;1160000;1610000;3537791;151;1097;233
15.11.2021;1170000;1610000;3544757;195;1165;261
16.11.2021;1170000;1600000;3547214;223;1223;269
17.11.2021;1170000;1600000;3549675;305;1336;329
18.11.2021;1170000;1600000;3552622;277;1430;319
19.11.2021;1170000;1590000;3556156;324;1598;356
20.11.2021;1160000;1600000;3558438;214;1689;247